weather.gov     
National Weather Service

Terminal Aerodrome Forecast
NWS Homepage
This page is being discontinued on March 12, 2014.
The same data is available at this site. Please update your bookmarks.
Thank you, and we apologize for the inconvenience.
Please send an email to SR-SRH.Webmaster@noaa.gov with any concerns.


Current Version
Previous Version:    01  02  03  04  05  06  07  08  09  10  11  12  13  14  15  16  17  18  19  20  21  22  23  24  25  26  27  28  29  
[Printable]
271
FTUS43 KOAX 300306 AAA
TAFLNK
TAF AMD
KLNK 300306Z 3003/3024 03004KT P6SM SCT150 BKN250
     FM301000 VRB03KT P6SM SCT250
      TEMPO 3010/3013 5SM BR
     FM301600 02006KT P6SM SCT040
     FM302000 04007KT P6SM SCT050 SCT250=


271
FTUS43 KOAX 300306 AAA
TAFLNK
TAF AMD
KLNK 300306Z 3003/3024 03004KT P6SM SCT150 BKN250
     FM301000 VRB03KT P6SM SCT250
      TEMPO 3010/3013 5SM BR
     FM301600 02006KT P6SM SCT040
     FM302000 04007KT P6SM SCT050 SCT250=




U.S. Dept. of Commerce
NOAA National Weather Service
1325 East West Highway
Silver Spring, MD 20910
E-mail: w-nws.webmaster@noaa.gov
Page last modified: May 16, 2007
NATIONAL WEATHER SERVICE: for Safety, for Work, for Fun - FOR LIFE